SCP
1 1 1 1 1 1 1 1 1 1 1 1 1 0 0 0 0 0 0 0 0 0 0 0 0 0 0 0 0 0 0 0 0 0 0 0 0 0 0 0 0 0 0
1 2 2 2 2 2 1 1 2 2 2 1 1 0 0 0 0 0 0 0 0 0 0 0 0 0 0 0 0 0 0 0 0 0 0 0 0 0 0 0 0 0 0
2 2 3 3 4 3 2 2 2 3 2 1 1 1 0 0 0 0 0 0 0 0 0 0 0 1 1 1 1 1 0 0 0 0 0 0 0 0 0 0 0 0 0
3 3 3 4 4 3 2 3 3 2 2 2 1 1 1 1 1 1 1 1 1 1 1 1 1 1 1 1 1 1 1 1 0 0 0 0 0 0 0 0 0 0 0
3 3 3 3 3 3 3 3 3 2 2 2 1 1 1 1 1 1 1 1 1 1 1 1 1 1 1 1 1 1 1 1 1 0 0 0 0 0 0 0 0 0 0
4 3 3 3 3 3 3 3 3 2 2 2 2 1 1 1 1 1 1 1 1 1 1 2 1 1 1 1 1 0 1 1 1 1 1 1 1 0 0 0 0 0 0
4 4 4 3 3 2 2 3 3 2 2 2 2 2 2 1 1 0 0 1 1 1 2 2 2 1 1 1 1 1 1 1 1 1 1 1 1 1 0 0 0 0 0
4 4 3 3 3 2 2 3 3 3 3 3 3 2 2 2 1 0 0 0 1 2 2 2 2 2 2 2 2 2 2 2 1 1 1 1 1 1 1 1 0 0 0
3 3 3 3 3 2 2 3 3 3 4 4 3 3 3 2 1 0 0 0 1 2 2 2 2 2 2 1 2 3 4 3 2 1 0 1 0 0 0 0 0 0 0
2 2 2 2 3 3 3 3 3 3 4 3 3 3 3 3 2 0 0 0 1 2 2 2 2 1 1 1 1 2 3 3 2 1 1 1 1 0 0 0 0 0 0
1 1 1 1 2 2 2 3 3 3 4 3 3 3 3 3 2 1 0 0 1 1 2 2 1 1 0 0 1 1 1 1 2 2 2 2 2 1 1 1 1 1 1
1 1 1 1 1 1 2 3 3 4 4 4 3 3 3 3 2 1 0 0 0 1 1 1 1 0 0 0 0 0 0 1 1 2 2 3 2 2 2 3 2 2 1
1 1 1 1 1 1 2 2 3 3 3 3 3 3 3 3 3 1 0 0 0 0 0 1 0 0 0 0 0 0 0 0 1 2 2 3 3 3 3 4 4 2 2
1 1 1 1 1 1 1 1 2 2 2 2 2 3 3 3 3 1 1 1 0 0 0 0 0 0 0 0 0 1 1 1 1 2 2 2 3 3 4 4 4 2 2
1 1 1 1 1 1 1 1 1 1 1 1 2 2 2 1 1 1 0 0 0 0 0 0 1 1 1 1 1 1 2 2 1 2 2 2 2 2 3 3 3 2 1
0 0 0 0 0 0 0 0 0 1 1 1 1 0 0 0 0 0 0 0 0 0 0 0 1 1 1 1 1 2 2 2 1 1 1 2 2 2 2 3 3 2 2
0 0 0 0 0 0 0 0 0 0 0 0 0 0 0 0 0 0 0 0 0 0 0 0 0 1 1 1 1 1 1 1 1 1 1 1 2 2 2 3 3 2 2
0 0 0 0 0 0 0 0 0 0 0 0 0 0 0 0 0 0 0 0 0 0 0 0 0 1 1 1 1 1 1 1 1 1 1 1 2 2 2 3 2 2 2
0 0 0 0 0 0 0 0 0 0 0 0 0 0 0 0 0 0 0 0 0 0 0 0 0 0 0 1 1 1 1 1 1 1 1 1 1 2 2 2 2 1 1
0 0 0 0 0 0 0 0 0 0 0 0 0 0 0 0 0 0 0 0 0 0 0 0 0 0 0 1 1 1 1 1 1 1 1 1 1 1 1 1 1 1 1
0 0 0 0 0 0 0 0 0 0 0 0 0 0 0 0 0 0 0 0 0 0 0 0 0 0 0 1 1 1 1 1 1 1 1 1 1 1 1 1 1 1 1
0 0 0 0 0 0 0 0 0 0 0 0 0 0 0 0 0 0 0 0 0 0 0 0 0 0 0 0 0 0 0 0 0 1 1 1 1 1 1 1 1 1 1
0 0 0 0 0 0 0 0 0 0 0 0 0 0 0 0 0 0 0 0 0 0 0 0 0 0 0 0 0 0 0 0 0 0 0 0 0 1 1 1 1 1 1
0 0 0 0 0 0 0 0 1 1 1 0 0 0 0 0 0 0 0 0 0 0 0 0 0 0 0 0 0 0 0 0 0 0 0 0 0 0 0 0 0 0 0
0 0 0 0 0 0 0 0 1 1 0 0 0 0 0 0 0 0 0 0 0 0 0 0 0 0 0 0 0 0 0 0 0 0 0 0 0 0 0 0 0 0 0
0 0 0 0 0 0 0 0 0 0 0 0 0 0 0 0 0 0 0 0 0 0 0 0 0 0 0 0 0 0 0 0 0 0 0 0 0 0 0 0 0 0 0
Wind_Speed
13 13 12 11 11 11 10 10 10 9 9 10 10 10 10 10 9 9 9 8 9 8 8 8 8 8 6 6 6 6 6 7 8 7 6 5 5 8 7 7 8 8 8
13 13 12 12 11 11 12 11 11 11 10 11 10 10 10 10 10 11 11 10 10 10 10 9 9 8 9 8 7 8 7 7 8 10 8 7 7 7 8 9 9 8 8
13 13 13 13 13 13 12 12 11 11 11 11 11 11 11 11 11 11 11 11 11 11 11 10 10 10 10 9 9 9 8 8 8 9 9 7 7 7 8 9 10 8 10
13 13 13 13 13 13 12 12 12 12 12 12 12 12 12 12 12 12 12 12 12 12 12 12 12 12 12 11 10 10 10 9 9 10 10 9 8 8 7 8 9 8 8
11 12 12 11 11 11 11 11 11 12 12 12 12 12 13 12 12 13 13 13 13 13 13 13 14 13 12 11 10 10 10 10 10 10 10 9 8 7 7 7 8 7 8
9 10 9 9 9 10 10 10 10 11 11 11 12 13 13 12 11 12 13 13 13 14 14 14 14 14 15 16 16 14 13 13 13 11 10 10 10 9 8 8 9 9 9
5 4 5 5 6 7 7 8 9 10 10 11 12 13 14 14 12 13 15 14 15 14 14 13 13 13 15 15 17 20 20 20 18 15 15 14 12 10 10 11 10 10 10
3 2 1 2 3 3 5 6 6 7 8 9 11 12 13 13 12 14 14 16 16 16 16 16 15 15 15 15 15 16 17 18 19 18 17 16 15 12 11 11 12 12 12
6 5 4 2 1 0 2 3 4 5 7 8 9 10 12 12 10 12 13 13 14 17 17 17 17 17 16 15 16 17 17 16 16 17 18 16 14 11 10 10 11 11 12
8 7 6 5 3 2 2 2 2 3 5 7 7 8 10 10 7 8 11 10 13 13 13 15 17 18 17 15 17 17 18 17 16 14 16 17 17 17 16 16 14 13 13
7 7 6 6 4 4 3 3 3 3 4 5 6 6 7 8 7 7 9 9 11 12 12 12 12 14 18 18 17 17 18 15 14 15 14 14 15 14 15 16 16 14 14
7 7 8 7 6 5 5 4 4 5 5 5 5 6 6 5 5 5 6 10 11 12 12 12 12 9 10 14 15 17 18 15 13 14 14 14 14 13 13 15 16 16 15
7 7 7 6 6 5 5 5 4 4 5 6 6 6 7 6 5 6 7 10 12 11 11 14 15 15 12 12 17 18 16 14 14 15 16 15 14 13 12 11 13 14 16
6 5 4 4 5 5 5 5 6 6 6 7 8 8 8 8 8 7 7 7 9 11 11 12 15 17 16 16 14 14 14 14 14 15 15 14 13 12 12 12 12 12 13
5 5 5 5 5 5 5 5 6 6 6 7 9 10 10 10 9 11 10 11 12 12 13 12 13 13 13 12 12 13 13 13 14 15 14 14 13 13 13 12 12 12 13
5 5 6 6 6 6 7 6 3 5 6 8 10 11 10 10 12 13 14 15 16 14 12 14 14 14 14 14 14 13 13 13 13 13 14 13 13 13 13 12 12 12 13
5 6 6 7 7 8 8 9 9 7 6 9 11 11 12 13 14 15 16 16 17 14 13 14 14 14 14 14 13 13 13 13 12 12 13 13 12 12 12 12 12 12 13
6 5 6 7 8 8 8 9 9 10 11 9 7 6 8 10 13 15 16 14 14 12 12 13 13 13 13 13 13 13 12 12 11 12 13 12 12 12 12 12 12 14 13
7 6 7 8 8 8 9 9 9 11 10 10 10 9 8 10 12 13 12 11 12 12 12 12 12 12 12 12 12 12 12 12 12 11 11 11 11 12 12 13 13 14 13
5 3 6 9 9 8 8 9 9 10 10 10 10 11 11 12 12 12 11 11 11 12 12 12 12 12 11 11 11 11 11 11 12 11 11 10 10 11 13 15 13 12 12
8 6 6 8 8 8 9 10 10 10 10 10 10 10 12 12 12 12 11 11 11 11 12 12 11 12 11 10 10 11 13 11 10 10 10 10 10 10 11 11 12 12 11
8 8 8 8 8 8 9 9 9 9 10 11 11 11 11 10 10 10 11 11 11 11 11 11 10 10 10 10 9 9 9 9 9 8 9 9 9 9 10 10 10 10 10
7 8 8 8 8 8 8 9 9 9 10 11 11 11 11 10 11 11 11 11 11 11 11 10 10 9 9 8 8 7 8 8 7 7 7 7 7 8 8 9 11 11 11
7 8 8 8 8 9 9 9 9 10 10 10 10 10 10 11 11 12 12 11 11 11 10 10 10 12 14 10 7 6 6 7 7 6 9 8 8 7 7 8 10 11 11
7 8 8 8 9 9 9 9 10 10 10 10 10 10 11 11 11 11 11 11 12 11 13 12 9 10 13 13 10 8 8 8 7 8 8 8 8 8 8 9 9 9 10
7 8 8 7 8 8 9 9 9 10 10 10 10 10 11 11 11 11 11 10 11 11 11 10 12 13 14 11 11 10 7 7 8 8 8 8 9 8 8 8 10 10 11
Wind_Direction
206 207 211 210 210 211 216 216 211 211 204 206 209 212 215 217 217 221 237 230 231 236 236 235 237 255 256 252 245 249 253 258 269 277 276 269 262 274 285 280 273 269 252
207 208 211 213 212 213 216 216 211 210 209 209 211 215 219 220 220 223 230 232 232 235 236 237 239 235 234 250 253 251 253 259 266 276 281 276 259 258 263 270 272 268 274
207 210 213 214 214 216 218 214 211 210 212 213 213 218 222 224 224 226 230 235 236 238 238 238 238 239 238 239 241 249 249 245 248 264 270 272 269 261 263 261 262 262 270
211 212 215 217 217 216 215 212 210 209 211 215 217 221 224 226 228 228 229 233 237 239 240 241 241 238 237 239 240 243 250 256 253 256 263 264 259 255 254 263 264 249 253
216 218 220 221 219 218 215 214 212 212 216 217 220 223 226 228 229 228 231 232 234 238 239 239 240 239 240 239 246 243 240 244 251 253 257 261 259 257 258 261 268 272 262
217 223 224 221 217 216 217 216 214 216 222 223 225 228 230 232 223 220 232 241 239 239 241 241 240 232 230 228 239 249 253 251 252 258 260 260 263 262 261 266 271 270 270
201 216 215 215 215 216 218 219 221 223 224 228 233 235 238 239 226 217 220 240 247 245 244 243 244 241 229 232 226 227 237 242 246 253 260 262 263 256 258 258 255 263 273
120 126 144 198 213 215 224 231 234 235 234 235 238 241 245 244 224 219 219 234 248 249 247 245 245 248 242 236 238 235 234 232 228 232 245 253 256 260 254 254 266 264 261
80 75 71 74 87 186 237 252 251 250 249 248 247 249 251 253 232 221 220 243 245 247 248 248 246 248 244 231 239 245 246 246 237 229 233 242 249 252 252 253 251 253 257
63 60 57 55 51 38 6 324 299 275 268 267 264 262 264 266 254 226 220 249 255 256 252 249 244 242 245 226 234 243 246 247 249 238 226 235 242 241 229 236 246 250 256
64 64 60 53 48 37 23 7 337 313 301 291 290 282 274 272 267 238 222 251 263 266 265 260 257 232 229 230 230 242 248 252 253 249 244 236 231 231 228 221 227 241 250
60 56 51 42 29 32 24 7 350 328 304 293 292 289 282 275 271 269 239 241 264 275 274 274 275 282 247 236 233 242 247 249 252 251 247 244 240 234 229 226 222 228 239
58 51 43 37 29 19 5 352 334 324 314 315 311 305 301 300 284 239 244 248 250 260 273 278 283 286 275 254 239 236 237 241 243 244 245 244 242 241 239 231 229 229 236
51 41 31 21 12 12 343 339 335 331 328 325 318 313 310 305 302 313 308 291 271 263 271 276 265 258 253 256 256 239 235 237 237 241 243 245 243 239 235 233 231 227 231
33 19 7 5 4 341 336 332 324 329 336 315 315 313 311 309 327 339 316 304 305 307 309 290 280 274 266 258 252 248 241 235 233 239 243 244 241 238 237 231 230 233 237
7 2 351 346 346 331 327 321 283 275 264 253 257 274 295 297 305 304 298 289 284 285 285 277 274 271 268 266 262 258 251 245 241 237 238 239 240 240 239 235 230 231 238
350 347 338 336 331 326 324 320 317 304 264 251 252 253 262 283 289 289 287 286 280 270 267 270 272 272 271 269 267 263 259 254 247 243 241 240 239 240 241 238 234 235 238
327 337 325 324 322 320 319 316 314 315 316 314 300 280 279 280 282 281 281 286 284 269 270 276 279 280 278 276 272 269 268 265 255 247 243 241 238 237 238 239 237 236 236
324 333 334 323 315 317 318 315 315 315 313 314 316 315 313 305 291 284 285 290 296 296 292 289 287 285 282 279 277 276 272 266 260 253 245 241 239 238 238 238 238 236 237
316 331 315 313 314 321 322 318 317 317 316 317 318 320 327 322 315 314 311 307 302 300 298 294 291 288 287 284 279 274 270 265 260 253 247 241 239 238 238 239 238 236 234
324 327 312 309 324 326 324 323 322 320 319 319 318 325 328 313 309 310 312 310 307 305 303 301 295 291 286 283 279 275 271 268 265 259 251 245 241 239 237 237 237 239 239
323 325 330 331 328 330 329 323 321 320 320 320 320 320 318 311 314 315 313 311 308 305 303 301 299 297 293 291 286 281 276 272 268 266 258 248 241 240 239 239 240 241 242
325 329 331 331 327 329 319 323 325 325 325 323 321 322 323 321 317 315 314 313 312 311 310 308 304 303 302 299 297 292 284 280 279 276 269 258 247 242 241 242 243 243 243
336 335 334 332 332 331 329 329 330 329 327 325 325 324 322 322 320 319 319 318 317 316 316 315 314 314 312 308 302 300 305 313 311 302 291 276 263 256 248 244 243 245 246
345 342 338 338 337 335 333 333 333 332 329 328 327 325 324 323 322 321 321 320 320 320 320 318 315 316 317 315 315 318 329 332 325 317 300 286 273 264 259 256 253 251 251
351 349 346 345 343 340 337 335 334 333 330 330 329 328 327 326 325 324 325 325 323 321 319 316 317 319 319 316 321 326 323 320 316 311 299 288 279 270 264 261 259 256 257